,,Stat6,,Stat2,,Stat8,,Stat9,,Stat10,,Wind1,,Wind1,
time,status,PA1M_AVG,status,PR1M_SUM,status,RH1M_AVG,status,SR1M_AVG,status,TA1M_AVG,status,W1dAve1m,status,W1sAve1m,
2003-11-24, 00:00:00,VALID,918.995,VALID,0,VALID,98.3459,VALID,-0.0679233,VALID,20.9311,VALID,270,VALID,0.289993,
2003-11-24, 00:01:00,VALID,918.971,VALID,0,VALID,98.3929,VALID,-0.0339617,VALID,20.9311,VALID,257,VALID,0.317294,
2003-11-24, 00:02:00,VALID,918.952,VALID,0,VALID,98.4591,VALID,-0.101885,VALID,20.9284,VALID,253,VALID,0.0146484,
2003-11-24, 00:03:00,VALID,918.957,VALID,0,VALID,98.5315,VALID,-0.0849042,VALID,20.9239,VALID,253,VALID,0,
2003-11-24, 00:04:00,VALID,918.951,VALID,0,VALID,98.7808,VALID,-0.0679233,VALID,20.9666,VALID,253,VALID,0,
2003-11-24, 00:05:00,VALID,918.945,VALID,0,VALID,98.9779,VALID,-0.0679233,VALID,21.0259,VALID,292,VALID,0.263765,
2003-11-24, 00:06:00,VALID,918.956,VALID,0,VALID,99.1597,VALID,-0.0169808,VALID,21.0593,VALID,16,VALID,0.547247,
2003-11-24, 00:07:00,VALID,918.958,VALID,0,VALID,99.1877,VALID,0,VALID,21.0948,VALID,27,VALID,0.411701,
2003-11-24, 00:08:00,VALID,918.945,VALID,0,VALID,98.941,VALID,0,VALID,21.0622,VALID,34,VALID,0.541466,
2003-11-24, 00:09:00,VALID,918.924,VALID,0,VALID,99.0415,VALID,0.0169808,VALID,21.0856,VALID,24,VALID,0.605374,
2003-11-24, 00:10:00,VALID,918.907,VALID,0,VALID,99.0466,VALID,0.0169808,VALID,21.0881,VALID,22,VALID,0.198475,
2003-11-24, 00:11:00,VALID,918.894,VALID,0,VALID,99.0974,VALID,0,VALID,21.0943,VALID,22,VALID,0.329078,
2003-11-24, 00:12:00,VALID,918.879,VALID,0,VALID,99.1674,VALID,0,VALID,21.1137,VALID,22,VALID,0.0886719,
2003-11-24, 00:13:00,VALID,918.856,VALID,0,VALID,99.1343,VALID,0,VALID,21.1371,VALID,22,VALID,0,
2003-11-24, 00:14:00,VALID,918.832,VALID,0,VALID,99.0618,VALID,-0.0169808,VALID,21.1403,VALID,73,VALID,0.200781,
2003-11-24, 00:15:00,VALID,918.83,VALID,0,VALID,98.8545,VALID,-0.0169808,VALID,21.1048,VALID,194,VALID,0.123633,
2003-11-24, 00:16:00,VALID,918.8,VALID,0,VALID,98.8062,VALID,0,VALID,21.0754,VALID,194,VALID,0.0438262,
2003-11-24, 00:17:00,VALID,918.799,VALID,0,VALID,98.824,VALID,-0.0169808,VALID,21.0821,VALID,194,VALID,0.0116279,
2003-11-24, 00:18:00,VALID,918.778,VALID,0,VALID,98.8367,VALID,-0.0169808,VALID,21.0787,VALID,194,VALID,0.0864826,
2003-11-24, 00:19:00,VALID,918.777,VALID,0,VALID,98.8965,VALID,0,VALID,21.0986,VALID,194,VALID,0.0834604,
2003-11-24, 00:20:00,VALID,918.765,VALID,0,VALID,98.9448,VALID,0,VALID,21.1115,VALID,194,VALID,0.00729167,
2003-11-24, 00:21:00,VALID,918.746,VALID,0,VALID,98.9067,VALID,0,VALID,21.1042,VALID,185,VALID,0.159157,
2003-11-24, 00:22:00,VALID,918.739,VALID,0,VALID,98.6447,VALID,-0.0169808,VALID,21.0816,VALID,3,VALID,0.717076,
2003-11-24, 00:23:00,VALID,918.738,VALID,0,VALID,98.7325,VALID,0,VALID,21.0784,VALID,17,VALID,0.484012,
2003-11-24, 00:24:00,VALID,918.728,VALID,0,VALID,98.7859,VALID,-0.0169808,VALID,21.0881,VALID,16,VALID,0.55,
2003-11-24, 00:25:00,VALID,918.732,VALID,0,VALID,98.7719,VALID,0.0339617,VALID,21.0881,VALID,6,VALID,0.63529,
2003-11-24, 00:26:00,VALID,918.722,VALID,0,VALID,98.9143,VALID,0,VALID,21.0986,VALID,8,VALID,0.563988,
2003-11-24, 00:27:00,VALID,918.733,VALID,0,VALID,99.0694,VALID,0,VALID,21.1236,VALID,22,VALID,0.685454,
2003-11-24, 00:28:00,VALID,918.746,VALID,0,VALID,99.0669,VALID,0,VALID,21.1336,VALID,22,VALID,0.176962,
2003-11-24, 00:29:00,VALID,918.775,VALID,0,VALID,98.9868,VALID,0.0169808,VALID,21.1045,VALID,22,VALID,0.061481,
2003-11-24, 00:30:00,VALID,918.783,VALID,0,VALID,98.9703,VALID,0,VALID,21.0975,VALID,22,VALID,0.0894886,
2003-11-24, 00:31:00,VALID,918.797,VALID,0,VALID,98.763,VALID,0,VALID,21.0787,VALID,21,VALID,0.303711,
2003-11-24, 00:32:00,VALID,918.823,VALID,0,VALID,98.5354,VALID,0,VALID,21.0264,VALID,22,VALID,0.348899,
2003-11-24, 00:33:00,VALID,918.848,VALID,0,VALID,98.4171,VALID,-0.0169808,VALID,21.0044,VALID,24,VALID,0.173039,
2003-11-24, 00:34:00,VALID,918.868,VALID,0,VALID,98.2556,VALID,0,VALID,20.9629,VALID,18,VALID,0.0545099,
2003-11-24, 00:35:00,VALID,918.891,VALID,0,VALID,98.1793,VALID,-0.0169808,VALID,20.9101,VALID,346,VALID,0.381882,
2003-11-24, 00:36:00,VALID,918.92,VALID,0,VALID,98.1946,VALID,0.0169808,VALID,20.9072,VALID,351,VALID,0.259028,
2003-11-24, 00:37:00,VALID,918.926,VALID,0,VALID,98.0814,VALID,0,VALID,20.8714,VALID,339,VALID,0.451853,
2003-11-24, 00:38:00,VALID,918.935,VALID,0,VALID,98.0839,VALID,0.0339617,VALID,20.8523,VALID,309,VALID,0.193452,
2003-11-24, 00:39:00,VALID,918.932,VALID,0,VALID,98.0344,VALID,0.0169808,VALID,20.8294,VALID,221,VALID,0.211111,
2003-11-24, 00:40:00,VALID,918.924,VALID,0,VALID,98.1513,VALID,0,VALID,20.8296,VALID,221,VALID,0.00342988,
2003-11-24, 00:41:00,VALID,918.934,VALID,0,VALID,98.276,VALID,0,VALID,20.8619,VALID,221,VALID,0,
2003-11-24, 00:42:00,VALID,918.92,VALID,0,VALID,98.2721,VALID,0.0169808,VALID,20.8719,VALID,221,VALID,0.125174,
2003-11-24, 00:43:00,VALID,918.914,VALID,0,VALID,98.2302,VALID,0,VALID,20.8652,VALID,122,VALID,0.259811,
2003-11-24, 00:44:00,VALID,918.912,VALID,0,VALID,98.1997,VALID,0.0169808,VALID,20.8654,VALID,99,VALID,0.231399,
2003-11-24, 00:45:00,VALID,918.901,VALID,0,VALID,98.1068,VALID,0.0169808,VALID,20.8364,VALID,146,VALID,0.281795,
2003-11-24, 00:46:00,VALID,918.903,VALID,0,VALID,98.1145,VALID,-0.0169808,VALID,20.8111,VALID,213,VALID,0.150347,
2003-11-24, 00:47:00,VALID,918.883,VALID,0,VALID,98.2213,VALID,0.0169808,VALID,20.7973,VALID,213,VALID,0.0116279,
2003-11-24, 00:48:00,VALID,918.861,VALID,0,VALID,98.3917,VALID,0,VALID,20.8073,VALID,214,VALID,0.129179,
2003-11-24, 00:49:00,VALID,918.846,VALID,0,VALID,98.4629,VALID,0,VALID,20.8138,VALID,297,VALID,0.450521,
2003-11-24, 00:50:00,VALID,918.802,VALID,0,VALID,98.4998,VALID,0,VALID,20.814,VALID,356,VALID,0.396763,
2003-11-24, 00:51:00,VALID,918.765,VALID,0,VALID,98.4031,VALID,0,VALID,20.817,VALID,12,VALID,0.689732,
2003-11-24, 00:52:00,VALID,918.751,VALID,0,VALID,98.4133,VALID,0,VALID,20.8172,VALID,21,VALID,0.986049,
2003-11-24, 00:53:00,VALID,918.728,VALID,0,VALID,98.5773,VALID,0.0339617,VALID,20.8393,VALID,13,VALID,0.982851,
2003-11-24, 00:54:00,VALID,918.699,VALID,0,VALID,98.5964,VALID,-0.0169808,VALID,20.8525,VALID,25,VALID,0.853795,
2003-11-24, 00:55:00,VALID,918.667,VALID,0,VALID,98.646,VALID,0.0169808,VALID,20.8689,VALID,21,VALID,0.817894,
2003-11-24, 00:56:00,VALID,918.664,VALID,0,VALID,98.7337,VALID,0,VALID,20.8915,VALID,21,VALID,0.792668,
2003-11-24, 00:57:00,VALID,918.644,VALID,0,VALID,98.5443,VALID,0,VALID,20.8846,VALID,36,VALID,0.791061,
2003-11-24, 00:58:00,VALID,918.648,VALID,0,VALID,98.4006,VALID,0,VALID,20.8595,VALID,19,VALID,1.30909,
2003-11-24, 00:59:00,VALID,918.647,VALID,0,VALID,98.4705,VALID,-0.0509425,VALID,20.8498,VALID,8,VALID,1.05659,
2003-11-24, 01:00:00,VALID,918.659,VALID,0,VALID,98.5303,VALID,0,VALID,20.8331,VALID,13,VALID,0.979226,
2003-11-24, 01:01:00,VALID,918.665,VALID,0,VALID,98.5341,VALID,-0.0169808,VALID,20.8466,VALID,14,VALID,1.07031,
2003-11-24, 01:02:00,VALID,918.673,VALID,0,VALID,98.4273,VALID,0,VALID,20.8135,VALID,16,VALID,0.685213,
2003-11-24, 01:03:00,VALID,918.678,VALID,0,VALID,98.5328,VALID,0.0339617,VALID,20.8304,VALID,5,VALID,0.468023,
2003-11-24, 01:04:00,VALID,918.676,VALID,0,VALID,98.4196,VALID,0,VALID,20.8041,VALID,8,VALID,0.145089,
2003-11-24, 01:05:00,VALID,918.662,VALID,0,VALID,98.5099,VALID,0,VALID,20.8073,VALID,16,VALID,0.350836,
2003-11-24, 01:06:00,VALID,918.67,VALID,0,VALID,98.3968,VALID,0.0169808,VALID,20.7949,VALID,10,VALID,0.127604,
2003-11-24, 01:07:00,VALID,918.656,VALID,0,VALID,98.2315,VALID,0,VALID,20.7753,VALID,11,VALID,0.238653,
2003-11-24, 01:08:00,VALID,918.654,VALID,0,VALID,98.3701,VALID,-0.0169808,VALID,20.7656,VALID,279,VALID,0.178943,
2003-11-24, 01:09:00,VALID,918.648,VALID,0,VALID,98.379,VALID,0,VALID,20.7685,VALID,252,VALID,0.182958,
2003-11-24, 01:10:00,VALID,918.638,VALID,0,VALID,98.3014,VALID,0.0169808,VALID,20.7561,VALID,245,VALID,0.212153,
2003-11-24, 01:11:00,VALID,918.647,VALID,0,VALID,98.2798,VALID,0,VALID,20.7335,VALID,225,VALID,0.511308,
2003-11-24, 01:12:00,VALID,918.657,VALID,0,VALID,98.4006,VALID,0,VALID,20.7327,VALID,222,VALID,0.212652,
2003-11-24, 01:13:00,VALID,918.668,VALID,0,VALID,98.4883,VALID,0,VALID,20.7333,VALID,222,VALID,0.0785061,
2003-11-24, 01:14:00,VALID,918.673,VALID,0,VALID,98.4921,VALID,0,VALID,20.7268,VALID,222,VALID,0,
2003-11-24, 01:15:00,VALID,918.674,VALID,0,VALID,98.5697,VALID,0.0169808,VALID,20.7435,VALID,222,VALID,0.00093006,
2003-11-24, 01:16:00,VALID,918.682,VALID,0,VALID,98.6104,VALID,0,VALID,20.7335,VALID,222,VALID,0.103743,
2003-11-24, 01:17:00,VALID,918.673,VALID,0,VALID,98.6562,VALID,-0.0169808,VALID,20.7365,VALID,223,VALID,0.218395,
2003-11-24, 01:18:00,VALID,918.672,VALID,0,VALID,98.571,VALID,0.0339617,VALID,20.7276,VALID,233,VALID,0.448633,
2003-11-24, 01:19:00,VALID,918.656,VALID,0,VALID,98.4692,VALID,0,VALID,20.691,VALID,240,VALID,0.501334,
2003-11-24, 01:20:00,VALID,918.637,VALID,0,VALID,98.3917,VALID,0,VALID,20.6525,VALID,255,VALID,0.646076,
2003-11-24, 01:21:00,VALID,918.624,VALID,0,VALID,98.4705,VALID,-0.0849042,VALID,20.6377,VALID,247,VALID,0.586632,
2003-11-24, 01:22:00,VALID,918.622,VALID,0,VALID,98.4247,VALID,-0.0849042,VALID,20.6156,VALID,236,VALID,0.640811,
2003-11-24, 01:23:00,VALID,918.59,VALID,0,VALID,98.4972,VALID,-0.0849042,VALID,20.6024,VALID,235,VALID,0.548971,
2003-11-24, 01:24:00,VALID,918.563,VALID,0,VALID,98.5811,VALID,-0.0849042,VALID,20.5666,VALID,260,VALID,0.385603,
2003-11-24, 01:25:00,VALID,918.548,VALID,0,VALID,98.6435,VALID,-0.101885,VALID,20.5668,VALID,228,VALID,0.612891,
2003-11-24, 01:26:00,VALID,918.519,VALID,0,VALID,98.6803,VALID,-0.101885,VALID,20.5604,VALID,228,VALID,0.292411,
2003-11-24, 01:27:00,VALID,918.522,VALID,0,VALID,98.7503,VALID,-0.101885,VALID,20.5606,VALID,228,VALID,0.109896,
2003-11-24, 01:28:00,VALID,918.515,VALID,0,VALID,98.7782,VALID,-0.0849042,VALID,20.5539,VALID,228,VALID,0.000177557,
2003-11-24, 01:29:00,VALID,918.523,VALID,0,VALID,98.8227,VALID,-0.0849042,VALID,20.5601,VALID,226,VALID,0.328465,
2003-11-24, 01:30:00,VALID,918.508,VALID,0,VALID,98.8596,VALID,-0.0849042,VALID,20.5736,VALID,202,VALID,0.419331,
2003-11-24, 01:31:00,VALID,918.499,VALID,0,VALID,98.8189,VALID,-0.101885,VALID,20.5668,VALID,200,VALID,0.276344,
2003-11-24, 01:32:00,VALID,918.503,VALID,0,VALID,98.8278,VALID,-0.0849042,VALID,20.5803,VALID,203,VALID,0.41915,
2003-11-24, 01:33:00,VALID,918.491,VALID,0,VALID,98.8075,VALID,-0.101885,VALID,20.573,VALID,217,VALID,0.170573,
2003-11-24, 01:34:00,VALID,918.465,VALID,0,VALID,98.796,VALID,-0.118866,VALID,20.5999,VALID,177,VALID,0.122337,
2003-11-24, 01:35:00,VALID,918.447,VALID,0,VALID,98.688,VALID,-0.101885,VALID,20.5929,VALID,177,VALID,0.00319602,
2003-11-24, 01:36:00,VALID,918.425,VALID,0,VALID,98.6943,VALID,-0.0339617,VALID,20.6116,VALID,160,VALID,0.365513,
2003-11-24, 01:37:00,VALID,918.397,VALID,0,VALID,98.6689,VALID,0,VALID,20.6108,VALID,156,VALID,0.11101,
2003-11-24, 01:38:00,VALID,918.371,VALID,0,VALID,98.7096,VALID,0.0169808,VALID,20.6234,VALID,156,VALID,0,
2003-11-24, 01:39:00,VALID,918.353,VALID,0,VALID,98.7172,VALID,0,VALID,20.6334,VALID,165,VALID,0.136905,
2003-11-24, 01:40:00,VALID,918.345,VALID,0,VALID,98.5328,VALID,0,VALID,20.6307,VALID,215,VALID,0.469658,
2003-11-24, 01:41:00,VALID,918.338,VALID,0,VALID,98.4578,VALID,0.0339617,VALID,20.5909,VALID,227,VALID,0.402344,
2003-11-24, 01:42:00,VALID,918.321,VALID,0,VALID,98.468,VALID,0.0169808,VALID,20.565,VALID,250,VALID,0.505766,
2003-11-24, 01:43:00,VALID,918.326,VALID,0,VALID,98.515,VALID,0.0169808,VALID,20.5623,VALID,253,VALID,0.203125,
2003-11-24, 01:44:00,VALID,918.322,VALID,0,VALID,98.5684,VALID,0.0169808,VALID,20.5591,VALID,253,VALID,0.170987,
2003-11-24, 01:45:00,VALID,918.309,VALID,0,VALID,98.6829,VALID,0,VALID,20.5591,VALID,253,VALID,0,
2003-11-24, 01:46:00,VALID,918.304,VALID,0,VALID,98.7655,VALID,0.0169808,VALID,20.5787,VALID,253,VALID,0,
2003-11-24, 01:47:00,VALID,918.299,VALID,0,VALID,98.7833,VALID,0.0169808,VALID,20.5817,VALID,253,VALID,0.0152244,
2003-11-24, 01:48:00,VALID,918.305,VALID,0,VALID,98.8266,VALID,0,VALID,20.5882,VALID,12,VALID,0.212391,
2003-11-24, 01:49:00,VALID,918.287,VALID,0,VALID,98.9003,VALID,0.0169808,VALID,20.6108,VALID,16,VALID,0.0302734,
2003-11-24, 01:50:00,VALID,918.302,VALID,0,VALID,98.8469,VALID,0.0169808,VALID,20.6075,VALID,16,VALID,0.454527,
2003-11-24, 01:51:00,VALID,918.312,VALID,0,VALID,98.866,VALID,-0.0849042,VALID,20.632,VALID,23,VALID,0.658067,
2003-11-24, 01:52:00,VALID,918.301,VALID,0,VALID,98.8037,VALID,-0.0679233,VALID,20.629,VALID,24,VALID,0.827943,
2003-11-24, 01:53:00,VALID,918.316,VALID,0,VALID,98.7528,VALID,-0.101885,VALID,20.6128,VALID,26,VALID,0.970022,
2003-11-24, 01:54:00,VALID,918.311,VALID,0,VALID,98.824,VALID,-0.101885,VALID,20.6158,VALID,17,VALID,0.973028,
2003-11-24, 01:55:00,VALID,918.31,VALID,0,VALID,98.8812,VALID,-0.0849042,VALID,20.622,VALID,37,VALID,0.729353,
2003-11-24, 01:56:00,VALID,918.299,VALID,0,VALID,98.7287,VALID,-0.101885,VALID,20.6193,VALID,307,VALID,0.559443,
2003-11-24, 01:57:00,VALID,918.29,VALID,0,VALID,98.5036,VALID,-0.101885,VALID,20.58,VALID,310,VALID,0.278125,
2003-11-24, 01:58:00,VALID,918.269,VALID,0,VALID,98.5354,VALID,-0.0849042,VALID,20.5765,VALID,319,VALID,0.377257,
2003-11-24, 01:59:00,VALID,918.258,VALID,0,VALID,98.4489,VALID,-0.0849042,VALID,20.5768,VALID,319,VALID,0.189862,
2003-11-24, 02:00:00,VALID,918.231,VALID,0,VALID,98.4311,VALID,-0.0849042,VALID,20.5636,VALID,319,VALID,0.193266,
2003-11-24, 02:01:00,VALID,918.212,VALID,0,VALID,98.4972,VALID,-0.101885,VALID,20.5634,VALID,319,VALID,0,
2003-11-24, 02:02:00,VALID,918.195,VALID,0,VALID,98.4832,VALID,-0.101885,VALID,20.5671,VALID,319,VALID,0,
2003-11-24, 02:03:00,VALID,918.17,VALID,0,VALID,98.4743,VALID,-0.0679233,VALID,20.5835,VALID,342,VALID,0.245898,
2003-11-24, 02:04:00,VALID,918.17,VALID,0,VALID,98.5252,VALID,-0.0679233,VALID,20.5867,VALID,357,VALID,0.391715,
2003-11-24, 02:05:00,VALID,918.158,VALID,0,VALID,98.5824,VALID,-0.0849042,VALID,20.6032,VALID,15,VALID,0.813408,
2003-11-24, 02:06:00,VALID,918.165,VALID,0,VALID,98.5837,VALID,0,VALID,20.6011,VALID,17,VALID,1.0149,
2003-11-24, 02:07:00,VALID,918.171,VALID,0,VALID,98.5366,VALID,0,VALID,20.6043,VALID,16,VALID,0.69077,
2003-11-24, 02:08:00,VALID,918.181,VALID,0,VALID,98.5481,VALID,0,VALID,20.6043,VALID,16,VALID,0.563772,
2003-11-24, 02:09:01,VALID,918.189,VALID,0,VALID,98.4464,VALID,0,VALID,20.6043,VALID,16,VALID,0.728277,
2003-11-24, 02:10:00,VALID,918.187,VALID,0,VALID,98.4413,VALID,0.0339617,VALID,20.5852,VALID,25,VALID,0.748326,
2003-11-24, 02:11:00,VALID,918.192,VALID,0,VALID,98.5748,VALID,0,VALID,20.611,VALID,359,VALID,0.370998,
2003-11-24, 02:12:01,VALID,918.194,VALID,0,VALID,98.4781,VALID,0,VALID,20.6011,VALID,354,VALID,0.150484,
2003-11-24, 02:13:00,VALID,918.202,VALID,0,VALID,98.3853,VALID,-0.0339617,VALID,20.5782,VALID,353,VALID,0,
2003-11-24, 02:14:00,VALID,918.19,VALID,0,VALID,98.3675,VALID,-0.0169808,VALID,20.5752,VALID,353,VALID,0.198765,
2003-11-24, 02:15:00,VALID,918.197,VALID,0,VALID,98.3421,VALID,0,VALID,20.569,VALID,353,VALID,0.129439,
2003-11-24, 02:16:00,VALID,918.2,VALID,0,VALID,98.3128,VALID,0,VALID,20.5688,VALID,353,VALID,0.254972,
2003-11-24, 02:17:01,VALID,918.2,VALID,0,VALID,98.3446,VALID,0.0169808,VALID,20.5524,VALID,302,VALID,0.304306,
2003-11-24, 02:18:01,VALID,918.194,VALID,0,VALID,98.3332,VALID,0,VALID,20.5265,VALID,246,VALID,0.287016,
2003-11-24, 02:19:00,VALID,918.192,VALID,0,VALID,98.4514,VALID,0.0339617,VALID,20.5136,VALID,245,VALID,0.17242,
2003-11-24, 02:20:00,VALID,918.188,VALID,0,VALID,98.4921,VALID,0,VALID,20.5077,VALID,245,VALID,0.300249,
2003-11-24, 02:21:00,VALID,918.192,VALID,0,VALID,98.5074,VALID,0,VALID,20.4848,VALID,245,VALID,0.334821,
2003-11-24, 02:22:01,VALID,918.186,VALID,0,VALID,98.5468,VALID,0,VALID,20.4657,VALID,245,VALID,0.0959821,
2003-11-24, 02:23:00,VALID,918.171,VALID,0,VALID,98.6346,VALID,0,VALID,20.4493,VALID,245,VALID,0.0941311,
2003-11-24, 02:24:00,VALID,918.153,VALID,0,VALID,98.6969,VALID,0,VALID,20.446,VALID,245,VALID,0.432292,
2003-11-24, 02:25:01,VALID,918.15,VALID,0,VALID,98.763,VALID,0.0169808,VALID,20.4294,VALID,241,VALID,0.419271,
2003-11-24, 02:26:00,VALID,918.137,VALID,0,VALID,98.8355,VALID,0,VALID,20.4205,VALID,240,VALID,0.0669389,
2003-11-24, 02:27:00,VALID,918.112,VALID,0,VALID,98.9181,VALID,0,VALID,20.4135,VALID,240,VALID,0.400868,
2003-11-24, 02:28:00,VALID,918.121,VALID,0,VALID,98.9194,VALID,0.0339617,VALID,20.4068,VALID,243,VALID,0.702539,
2003-11-24, 02:29:00,VALID,918.103,VALID,0,VALID,98.9461,VALID,-0.0169808,VALID,20.3814,VALID,242,VALID,0.611583,
2003-11-24, 02:30:01,VALID,918.07,VALID,0,VALID,99.0287,VALID,0,VALID,20.3787,VALID,244,VALID,0.201451,
2003-11-24, 02:31:00,VALID,918.044,VALID,0,VALID,99.1127,VALID,0,VALID,20.3852,VALID,238,VALID,0.138579,
2003-11-24, 02:32:00,VALID,918.018,VALID,0,VALID,99.1241,VALID,-0.0169808,VALID,20.3919,VALID,234,VALID,0.376524,
2003-11-24, 02:33:00,VALID,917.987,VALID,0,VALID,99.1902,VALID,0,VALID,20.3884,VALID,246,VALID,0.0917969,
2003-11-24, 02:34:00,VALID,917.971,VALID,0,VALID,99.2157,VALID,0,VALID,20.4008,VALID,246,VALID,0.00093006,
2003-11-24, 02:35:01,VALID,917.944,VALID,0,VALID,99.2449,VALID,0,VALID,20.404,VALID,246,VALID,0.0714558,
2003-11-24, 02:36:01,VALID,917.936,VALID,0,VALID,99.2564,VALID,0,VALID,20.4304,VALID,5,VALID,0.416193,
2003-11-24, 02:37:00,VALID,917.923,VALID,0,VALID,99.3072,VALID,-0.0169808,VALID,20.4331,VALID,20,VALID,0.657031,
2003-11-24, 02:38:01,VALID,917.908,VALID,0,VALID,99.2996,VALID,0,VALID,20.4528,VALID,17,VALID,0.665587,
2003-11-24, 02:39:00,VALID,917.89,VALID,0,VALID,99.2831,VALID,-0.0169808,VALID,20.4694,VALID,14,VALID,1.28852,
2003-11-24, 02:40:00,VALID,917.895,VALID,0,VALID,99.0529,VALID,0,VALID,20.4267,VALID,15,VALID,1.21094,
2003-11-24, 02:41:00,VALID,917.891,VALID,0,VALID,99.0287,VALID,-0.0169808,VALID,20.4143,VALID,12,VALID,1.40004,
2003-11-24, 02:42:00,VALID,917.882,VALID,0,VALID,99.0427,VALID,0,VALID,20.4043,VALID,21,VALID,1.16637,
2003-11-24, 02:43:00,VALID,917.899,VALID,0,VALID,99.0822,VALID,0,VALID,20.3946,VALID,21,VALID,0.733803,
2003-11-24, 02:44:00,VALID,917.899,VALID,0,VALID,99.1394,VALID,0,VALID,20.4145,VALID,23,VALID,0.518945,
2003-11-24, 02:45:00,VALID,917.901,VALID,0,VALID,99.1419,VALID,-0.0339617,VALID,20.4172,VALID,355,VALID,0.288681,
2003-11-24, 02:46:00,VALID,917.909,VALID,0,VALID,99.1941,VALID,0.0169808,VALID,20.4334,VALID,359,VALID,0.476381,
2003-11-24, 02:47:01,VALID,917.906,VALID,0,VALID,99.1724,VALID,0,VALID,20.4662,VALID,23,VALID,0.812695,
2003-11-24, 02:48:00,VALID,917.902,VALID,0,VALID,99.1101,VALID,0,VALID,20.4627,VALID,17,VALID,0.980655,
2003-11-24, 02:49:00,VALID,917.896,VALID,0,VALID,98.9525,VALID,0.0169808,VALID,20.4401,VALID,19,VALID,0.963034,
2003-11-24, 02:50:01,VALID,917.908,VALID,0,VALID,98.9537,VALID,0.0509425,VALID,20.4393,VALID,15,VALID,0.793445,
2003-11-24, 02:51:00,VALID,917.903,VALID,0,VALID,98.9448,VALID,0.0169808,VALID,20.4294,VALID,27,VALID,0.738104,
2003-11-24, 02:52:00,VALID,917.912,VALID,0,VALID,98.9232,VALID,0,VALID,20.4229,VALID,19,VALID,0.825763,
2003-11-24, 02:53:00,VALID,917.905,VALID,0,VALID,98.9194,VALID,0,VALID,20.4396,VALID,14,VALID,0.61795,
2003-11-24, 02:54:00,VALID,917.89,VALID,0,VALID,98.8431,VALID,0,VALID,20.4269,VALID,357,VALID,0.920632,
2003-11-24, 02:55:00,VALID,917.9,VALID,0,VALID,98.8266,VALID,0,VALID,20.4011,VALID,7,VALID,0.952381,
2003-11-24, 02:56:01,VALID,917.905,VALID,0,VALID,98.8851,VALID,0.0169808,VALID,20.4103,VALID,6,VALID,0.663132,
2003-11-24, 02:57:00,VALID,917.896,VALID,0,VALID,98.8202,VALID,0,VALID,20.4013,VALID,356,VALID,0.47532,
2003-11-24, 02:58:01,VALID,917.889,VALID,0,VALID,98.8215,VALID,0,VALID,20.3785,VALID,355,VALID,0.348514,
2003-11-24, 02:59:00,VALID,917.871,VALID,0,VALID,98.9105,VALID,0,VALID,20.3951,VALID,10,VALID,0.571875,
2003-11-24, 03:00:01,VALID,917.843,VALID,0,VALID,98.9105,VALID,0,VALID,20.3882,VALID,20,VALID,0.753906,
2003-11-24, 03:01:01,VALID,917.832,VALID,0,VALID,98.9525,VALID,0,VALID,20.3941,VALID,14,VALID,0.961739,
2003-11-24, 03:02:00,VALID,917.82,VALID,0,VALID,99.0084,VALID,0,VALID,20.3976,VALID,21,VALID,0.921094,
2003-11-24, 03:03:00,VALID,917.801,VALID,0,VALID,98.983,VALID,-0.0169808,VALID,20.4212,VALID,13,VALID,0.785937,
2003-11-24, 03:04:00,VALID,917.788,VALID,0,VALID,98.9105,VALID,0,VALID,20.408,VALID,23,VALID,0.731585,
2003-11-24, 03:05:00,VALID,917.752,VALID,0,VALID,98.955,VALID,0,VALID,20.4078,VALID,23,VALID,0.899962,
2003-11-24, 03:06:01,VALID,917.74,VALID,0,VALID,98.9639,VALID,0,VALID,20.4013,VALID,15,VALID,1.04792,
2003-11-24, 03:07:00,VALID,917.719,VALID,0,VALID,98.9461,VALID,0,VALID,20.4078,VALID,17,VALID,0.991655,
2003-11-24, 03:08:00,VALID,917.705,VALID,0,VALID,98.913,VALID,-0.0169808,VALID,20.4051,VALID,24,VALID,0.92731,
2003-11-24, 03:09:00,VALID,917.693,VALID,0,VALID,98.8634,VALID,0,VALID,20.4046,VALID,20,VALID,0.831845,
2003-11-24, 03:10:00,VALID,917.673,VALID,0,VALID,98.8482,VALID,0.0169808,VALID,20.3916,VALID,18,VALID,0.637649,
2003-11-24, 03:11:00,VALID,917.668,VALID,0,VALID,98.7999,VALID,0,VALID,20.376,VALID,13,VALID,0.550959,
2003-11-24, 03:12:00,VALID,917.638,VALID,0,VALID,98.7643,VALID,0,VALID,20.3397,VALID,11,VALID,0.704492,
2003-11-24, 03:13:00,VALID,917.631,VALID,0,VALID,98.8113,VALID,-0.0169808,VALID,20.3114,VALID,24,VALID,1.08213,
2003-11-24, 03:14:01,VALID,917.596,VALID,0,VALID,98.9334,VALID,-0.101885,VALID,20.3224,VALID,5,VALID,0.934451,
2003-11-24, 03:15:00,VALID,917.591,VALID,0,VALID,98.9537,VALID,-0.101885,VALID,20.2901,VALID,15,VALID,1.09687,
2003-11-24, 03:16:00,VALID,917.578,VALID,0,VALID,99.0961,VALID,-0.101885,VALID,20.2903,VALID,10,VALID,0.878634,
2003-11-24, 03:17:00,VALID,917.564,VALID,0,VALID,99.1483,VALID,-0.101885,VALID,20.2565,VALID,14,VALID,0.881138,
2003-11-24, 03:18:01,VALID,917.558,VALID,0,VALID,99.2475,VALID,-0.101885,VALID,20.2866,VALID,16,VALID,0.578125,
2003-11-24, 03:19:01,VALID,917.546,VALID,0,VALID,99.264,VALID,-0.0849042,VALID,20.2839,VALID,351,VALID,0.208629,
2003-11-24, 03:20:01,VALID,917.526,VALID,0,VALID,99.2589,VALID,-0.0849042,VALID,20.2769,VALID,356,VALID,0.268895,
2003-11-24, 03:21:00,VALID,917.521,VALID,0,VALID,99.2437,VALID,0,VALID,20.256,VALID,15,VALID,0.480469,
2003-11-24, 03:22:00,VALID,917.518,VALID,0,VALID,99.2233,VALID,0,VALID,20.2428,VALID,329,VALID,0.681402,
2003-11-24, 03:23:01,VALID,917.487,VALID,0,VALID,99.1979,VALID,0,VALID,20.2172,VALID,328,VALID,0.8375,
2003-11-24, 03:24:00,VALID,917.481,VALID,0,VALID,99.2551,VALID,0,VALID,20.1978,VALID,308,VALID,0.414063,
2003-11-24, 03:25:00,VALID,917.463,VALID,0,VALID,99.3098,VALID,-0.0169808,VALID,20.1882,VALID,336,VALID,0.655849,
2003-11-24, 03:26:01,VALID,917.457,VALID,0,VALID,99.3912,VALID,0,VALID,20.1882,VALID,9,VALID,0.721484,
2003-11-24, 03:27:00,VALID,917.46,VALID,0,VALID,99.4675,VALID,0,VALID,20.1951,VALID,4,VALID,0.213542,
2003-11-24, 03:28:01,VALID,917.46,VALID,0,VALID,99.4916,VALID,0,VALID,20.1981,VALID,4,VALID,0.0178571,
2003-11-24, 03:29:00,VALID,917.454,VALID,0,VALID,99.5387,VALID,0,VALID,20.208,VALID,4,VALID,0,
2003-11-24, 03:30:01,VALID,917.458,VALID,0,VALID,99.5921,VALID,0,VALID,20.2172,VALID,4,VALID,0.0139509,
2003-11-24, 03:31:01,VALID,917.434,VALID,0,VALID,99.6735,VALID,0,VALID,20.2431,VALID,15,VALID,0.601004,
2003-11-24, 03:32:01,VALID,917.43,VALID,0,VALID,99.6862,VALID,-0.0169808,VALID,20.2662,VALID,18,VALID,0.695486,
2003-11-24, 03:33:01,VALID,917.433,VALID,0,VALID,99.7002,VALID,0.0169808,VALID,20.2624,VALID,17,VALID,0.511161,
2003-11-24, 03:34:00,VALID,917.44,VALID,0,VALID,99.7396,VALID,0.0339617,VALID,20.2821,VALID,17,VALID,0.0555556,
2003-11-24, 03:35:00,VALID,917.414,VALID,0,VALID,99.7103,VALID,0,VALID,20.2689,VALID,17,VALID,0.280887,
2003-11-24, 03:36:00,VALID,917.406,VALID,0,VALID,99.7129,VALID,0,VALID,20.2724,VALID,17,VALID,0.342262,
2003-11-24, 03:37:00,VALID,917.392,VALID,0,VALID,99.7523,VALID,0,VALID,20.2818,VALID,17,VALID,0.343936,
2003-11-24, 03:38:01,VALID,917.385,VALID,0,VALID,99.7447,VALID,0,VALID,20.2888,VALID,10,VALID,0.770389,
2003-11-24, 03:39:01,VALID,917.373,VALID,0,VALID,99.6633,VALID,0,VALID,20.2759,VALID,351,VALID,0.544829,